Cloud_Cover
0 0 8 100 100 80 39 79 100 100 9 7 25 17 100 100 100 100 100 100 100 100 100 100 100 100 100 100 100 100 100 100 100 100 78 100 100 100 100 21 5 6 100 98 50 82 99 39 5
0 0 0 73 100 99 100 81 5 73 77 16 5 98 100 100 100 100 100 100 100 98 100 100 100 100 100 100 100 100 100 100 100 100 100 100 100 100 100 100 99 28 32 79 84 100 100 99 23
2 0 0 0 0 6 36 84 100 34 7 90 95 86 100 100 100 100 100 100 100 100 100 76 100 100 100 100 100 100 100 100 100 100 100 54 96 100 100 100 100 100 89 99 100 100 100 56 5
51 7 0 0 0 0 0 0 10 100 97 4 0 2 74 100 94 44 52 100 100 78 100 100 100 100 94 100 98 100 100 100 100 100 100 100 97 63 100 100 100 100 100 100 100 100 100 100 17
4 15 13 1 1 0 0 0 0 1 51 36 84 87 35 47 100 100 100 51 17 88 100 100 100 100 100 100 100 99 100 100 100 100 100 100 100 100 100 100 100 100 100 100 100 100 100 75 20
2 5 5 5 6 4 5 4 0 0 0 0 2 58 100 100 61 33 82 81 80 91 73 100 100 100 100 100 93 84 100 100 100 100 100 100 100 100 100 100 100 100 100 100 100 100 100 100 78
0 0 3 0 5 69 5 0 5 5 0 0 5 4 1 18 98 100 100 94 88 63 19 9 48 51 38 22 2 9 74 100 100 100 100 100 99 100 100 100 100 100 100 100 100 100 100 100 90
0 0 0 0 2 78 63 57 83 5 39 0 0 2 20 5 3 14 11 5 5 5 3 0 0 0 0 0 4 5 4 67 99 100 100 100 100 100 100 100 100 100 100 100 100 100 99 82 100
0 0 0 0 0 1 0 0 2 0 4 0 0 0 1 5 0 3 4 5 1 0 0 0 0 0 0 0 0 2 10 5 34 100 100 100 100 100 100 63 70 99 100 99 100 100 100 100 56
20 8 15 22 5 2 0 0 5 2 2 3 0 0 0 0 5 5 5 0 5 3 0 0 0 0 0 0 0 0 0 4 4 10 100 100 100 100 100 100 100 100 90 100 39 96 92 100 29
93 83 6 39 5 6 1 0 2 3 3 1 0 0 0 0 0 0 5 4 0 2 0 0 0 0 4 0 0 0 0 0 2 4 19 74 100 100 100 98 98 100 100 61 99 78 76 92 100
6 86 88 77 18 100 28 5 5 5 1 3 5 5 2 0 0 0 0 0 0 0 0 2 5 5 0 0 0 0 0 0 0 0 1 26 61 100 100 100 100 100 100 94 93 83 47 31 70
77 44 86 43 9 15 93 76 5 5 5 5 20 97 72 8 3 1 0 0 0 0 0 4 4 4 44 55 5 0 0 0 0 0 0 0 1 56 100 100 100 100 100 100 100 99 66 44 99
68 83 32 72 62 5 37 83 9 9 33 89 74 80 63 98 83 30 1 1 4 1 0 0 0 0 21 23 33 58 3 0 0 0 0 0 0 0 29 94 100 100 100 100 100 100 96 98 100
76 63 99 43 31 96 8 44 34 5 6 98 100 100 100 95 6 75 99 84 2 0 0 0 0 0 0 0 74 16 6 5 3 1 0 5 0 0 0 4 100 100 100 100 96 100 100 100 100
12 48 87 62 100 100 10 5 5 6 2 82 100 100 99 15 4 0 0 0 82 96 0 0 0 0 0 0 0 4 10 4 1 4 2 4 0 5 0 2 8 92 100 100 98 100 100 100 100
5 31 62 77 82 14 6 0 5 16 100 96 100 100 97 79 4 0 0 0 0 0 0 0 0 0 0 0 0 0 0 2 3 0 2 0 4 5 5 5 2 0 85 95 100 100 100 100 100
22 73 24 6 20 11 5 5 88 31 50 100 100 100 100 2 0 0 0 0 0 0 0 0 0 0 0 0 0 0 0 0 1 5 0 0 4 5 5 5 5 3 24 100 100 100 100 100 100
5 5 25 16 76 96 69 38 5 91 100 100 100 100 8 0 0 0 0 0 0 0 0 0 0 0 0 0 0 0 0 0 0 0 5 0 0 4 5 5 5 6 18 88 100 100 100 100 100
5 35 54 90 73 91 77 95 76 98 100 100 100 35 0 0 0 0 0 0 0 0 0 0 0 0 0 0 0 4 5 0 5 5 2 5 4 1 5 5 5 40 13 45 100 100 100 100 100
5 94 91 100 100 100 97 100 100 100 100 100 31 1 0 0 0 0 0 0 0 0 0 0 0 0 0 0 0 0 2 5 5 5 5 5 5 5 5 5 7 60 11 32 88 100 100 100 100
38 48 76 73 100 100 100 100 100 99 95 85 1 1 4 0 0 0 0 0 0 0 0 0 0 0 0 0 0 0 4 5 5 5 5 5 5 5 5 5 13 24 10 60 54 100 100 100 100
37 27 11 97 100 100 100 100 100 82 57 14 5 5 2 5 1 0 0 0 0 0 0 0 0 0 0 0 0 0 0 0 5 5 5 5 5 5 5 5 5 5 36 87 5 99 100 100 100
96 5 8 99 100 100 100 100 26 18 5 5 5 5 5 5 0 0 0 0 0 0 0 0 0 0 0 0 0 1 5 2 1 5 42 5 5 5 5 5 5 5 99 5 18 48 100 100 100
16 5 5 67 73 100 100 96 14 5 5 5 5 5 5 5 5 5 5 3 0 2 0 0 0 0 2 0 1 5 1 5 5 5 5 65 11 5 8 5 5 16 48 59 32 89 99 100 100
5 5 5 56 80 100 100 86 5 5 5 5 5 5 0 4 5 5 0 0 0 0 0 0 0 0 0 0 5 4 5 5 1 5 5 5 26 5 5 38 9 5 78 100 100 68 43 97 100
5 5 5 81 83 21 98 61 49 5 5 5 5 0 5 5 5 0 0 0 0 0 0 0 0 0 4 4 5 5 5 5 5 5 5 5 5 5 5 5 9 5 83 100 100 99 82 48 100
5 5 5 45 81 14 46 5 3 22 5 5 32 5 5 2 0 0 0 0 0 0 0 0 0 1 3 5 5 0 0 3 5 5 5 5 5 5 5 5 57 8 46 100 100 100 100 100 88
5 5 5 41 67 5 5 5 5 0 5 1 5 5 3 0 0 0 0 0 0 0 0 0 0 5 4 5 5 5 4 2 5 5 5 5 5 5 5 51 6 54 75 100 100 86 36 100 100
5 5 5 5 34 5 5 5 5 1 5 5 5 5 0 0 0 0 0 0 0 0 0 0 5 5 5 5 5 5 5 5 5 5 5 5 5 5 5 5 62 60 85 100 100 100 98 100 100